K9SCH Weather Reports


Display with metric or nautical units.
time (UTC)temp
F
wind
direction
speed
MPH
gust
MPH
rain 1hr
in
rain 24hr
in
rain mn
in
humidity
%
barometer
mb
20260902200016 95 248 5.0 10.0 0.00 0.00 0.00 40 1014.6
20260902194037 95 203 5.0 11.0 0.00 0.00 0.00 40 1015.1
20260902193044 94 248 4.0 8.0 0.00 0.00 0.00 43 1015.3
20260902192040 94 248 5.0 10.0 0.00 0.00 0.00 43 1015.4
20260902191015 93 248 6.0 10.0 0.00 0.00 0.00 44 1015.6
20260902190018 93 270 4.0 10.0 0.00 0.00 0.00 46 1015.8
20260902185035 93 293 1.0 9.0 0.00 0.00 0.00 45 1015.8
20260902184016 93 248 5.0 11.0 0.00 0.00 0.00 44 1016.0
20260902182037 93 248 3.0 7.0 0.00 0.00 0.00 46 1016.3
20260902181015 92 270 4.0 7.0 0.00 0.00 0.00 45 1016.4
20260902180015 91 248 4.0 7.0 0.00 0.00 0.00 46 1016.4
20260902175019 91 248 6.0 13.0 0.00 0.00 0.00 46 1016.5
20260902174119 90 248 5.0 13.0 0.00 0.00 0.00 48 1016.6
20260902173019 91 248 4.0 11.0 0.00 0.00 0.00 47 1016.5
20260902172015 90 248 4.0 9.0 0.00 0.00 0.00 50 1016.6
20260902171016 90 248 6.0 10.0 0.00 0.00 0.00 49 1016.6
20260902170017 90 248 3.0 9.0 0.00 0.00 0.00 52 1016.7
20260902165037 89 225 3.0 8.0 0.00 0.00 0.00 51 1016.5
20260902163018 89 248 5.0 8.0 0.00 0.00 0.00 52 1016.6
20260902162017 89 248 6.0 9.0 0.00 0.00 0.00 52 1016.5
20260902155017 89 203 1.0 3.0 0.00 0.00 0.00 54 1016.4
20260902154017 89 0.0 1.0 0.00 0.00 0.00 55 1016.4
20260902153017 88 158 2.0 4.0 0.00 0.00 0.00 57 1016.4
20260902152015 87 203 2.0 4.0 0.00 0.00 0.00 59 1016.3
20260902151018 86 180 3.0 5.0 0.00 0.00 0.00 61 1016.1
20260902150018 85 158 3.0 7.0 0.00 0.00 0.00 61 1016.1
20260902145019 84 158 4.0 8.0 0.00 0.00 0.00 63 1016.0
20260902144019 84 158 3.0 6.0 0.00 0.00 0.00 62 1016.1
20260902143017 84 180 2.0 7.0 0.00 0.00 0.00 65 1016.1
20260902142015 83 158 2.0 4.0 0.00 0.00 0.00 66 1016.0
20260902140019 81 135 3.0 6.0 0.00 0.00 0.00 69 1015.6
20260902135035 80 135 3.0 6.0 0.00 0.00 0.00 70 1015.5
20260902134017 79 135 3.0 6.0 0.00 0.00 0.00 71 1015.5
20260902133015 78 135 4.0 6.0 0.00 0.00 0.00 73 1015.4
20260902132015 78 135 4.0 8.0 0.00 0.00 0.00 74 1015.5
20260902131016 77 135 3.0 5.0 0.00 0.00 0.00 75 1015.4
20260902130015 77 135 3.0 6.0 0.00 0.00 0.00 75 1015.4
20260902125015 77 113 3.0 5.0 0.00 0.00 0.00 75 1015.2
20260902124016 77 135 3.0 5.0 0.00 0.00 0.00 75 1015.1
20260902123016 77 135 3.0 5.0 0.00 0.00 0.00 75 1015.1
20260902122018 77 135 3.0 5.0 0.00 0.00 0.00 74 1015.0
20260902121024 77 135 3.0 4.0 0.00 0.00 0.00 73 1014.9
20260902120017 77 135 3.0 6.0 0.00 0.00 0.00 73 1015.0
20260902115015 78 135 3.0 5.0 0.00 0.00 0.00 72 1015.0
20260902114017 78 135 3.0 5.0 0.00 0.00 0.00 71 1015.0
20260902113015 78 135 3.0 6.0 0.00 0.00 0.00 70 1014.9
20260902112015 78 135 3.0 6.0 0.00 0.00 0.00 69 1014.9
20260902111015 79 135 3.0 5.0 0.00 0.00 0.00 69 1014.8
20260902110018 79 135 3.0 6.0 0.00 0.00 0.00 68 1015.0
20260902105017 79 135 4.0 8.0 0.00 0.00 0.00 68 1015.0
20260902104017 79 135 3.0 6.0 0.00 0.00 0.00 68 1015.0
20260902103038 79 135 3.0 5.0 0.00 0.00 0.00 68 1015.0
20260902102019 79 135 3.0 4.0 0.00 0.00 0.00 68 1014.9
20260902101020 79 113 3.0 6.0 0.00 0.00 0.00 68 1014.9
20260902100020 79 113 4.0 6.0 0.00 0.00 0.00 67 1014.8
20260902095017 79 113 2.0 4.0 0.00 0.00 0.00 67 1014.9
20260902094038 79 113 2.0 6.0 0.00 0.00 0.00 67 1015.0
20260902093019 79 113 2.0 4.0 0.00 0.00 0.00 67 1014.9
20260902092037 79 135 2.0 4.0 0.00 0.00 0.00 67 1014.8
20260902091017 79 135 2.0 4.0 0.00 0.00 0.00 68 1014.7
20260902090022 79 135 1.0 3.0 0.00 0.00 0.00 67 1014.7
20260902085017 80 135 1.0 4.0 0.00 0.00 0.00 66 1014.7
20260902084015 80 113 2.0 4.0 0.00 0.00 0.00 66 1014.7
20260902083017 80 113 2.0 3.0 0.00 0.00 0.00 65 1014.8
20260902082017 80 113 3.0 5.0 0.00 0.00 0.00 66 1014.8
20260902081017 79 135 2.0 5.0 0.00 0.00 0.00 67 1014.7
20260902080017 79 135 3.0 4.0 0.00 0.00 0.00 68 1014.6
20260902075017 79 135 2.0 4.0 0.00 0.00 0.00 69 1014.6
20260902074018 80 135 2.0 3.0 0.00 0.00 0.00 67 1014.7
20260902073019 80 135 2.0 3.0 0.00 0.00 0.00 66 1014.7
20260902072037 80 113 1.0 2.0 0.00 0.00 0.00 64 1014.6
20260902071017 81 113 2.0 3.0 0.00 0.00 0.00 63 1014.5
20260902070017 81 113 3.0 4.0 0.00 0.00 0.00 62 1014.5
20260902065016 81 113 3.0 4.0 0.00 0.00 0.00 61 1014.4
20260902064018 81 113 3.0 5.0 0.00 0.00 0.00 61 1014.4
20260902063018 81 113 2.0 4.0 0.00 0.00 0.00 61 1014.5
20260902062016 82 113 3.0 5.0 0.00 0.00 0.00 61 1014.6
20260902061019 82 90 3.0 5.0 0.00 0.00 0.00 61 1014.5
20260902060018 82 113 2.0 4.0 0.00 0.00 0.00 61 1014.5
20260902055017 82 90 3.0 4.0 0.00 0.00 0.00 60 1014.4
20260902054043 82 113 3.0 4.0 0.00 0.00 0.00 60 1014.4
20260902053016 82 113 4.0 6.0 0.00 0.00 0.00 60 1014.3
20260902052018 82 90 3.0 6.0 0.00 0.00 0.00 61 1014.5
20260902051018 82 113 3.0 5.0 0.00 0.00 0.00 62 1014.5
20260902050016 82 113 2.0 4.0 0.00 0.00 0.00 62 1014.3
20260902045018 82 113 3.0 5.0 0.00 0.00 0.00 61 1014.6
20260902044036 83 113 3.0 5.0 0.00 0.00 0.00 60 1014.5
20260902043018 83 113 2.0 2.0 0.00 0.00 0.00 61 1014.4
20260902042018 83 113 3.0 4.0 0.00 0.00 0.00 61 1014.3
20260902041017 83 113 2.0 3.0 0.00 0.00 0.00 61 1014.2
20260902040019 84 0.0 1.0 0.00 0.00 0.00 61 1014.1
20260902035016 84 0.0 0.0 0.00 0.00 0.00 61 1014.0
20260902034036 84 0.0 1.0 0.00 0.00 0.00 61 1013.8
20260902033018 85 0.0 1.0 0.00 0.00 0.00 61 1013.7
20260902032016 85 0.0 1.0 0.00 0.00 0.00 60 1013.5
20260902031018 84 0.0 0.0 0.00 0.00 0.00 60 1013.2
20260902030016 85 0.0 0.0 0.00 0.00 0.00 63 1013.1
20260902025017 86 0.0 0.0 0.00 0.00 0.00 62 1012.8
20260902024020 86 0.0 0.0 0.00 0.00 0.00 57 1012.7
20260902023038 87 0.0 0.0 0.00 0.00 0.00 57 1012.7
20260902022018 88 0.0 0.0 0.00 0.00 0.00 55 1012.5
20260902021016 89 0.0 0.0 0.00 0.00 0.00 47 1012.5
20260902020018 90 0.0 0.0 0.00 0.00 0.00 43 1012.2
20260902015016 91 0.0 0.0 0.00 0.00 0.00 41 1012.1
20260902014017 92 0.0 1.0 0.00 0.00 0.00 40 1012.0
20260902013016 93 248 2.0 5.0 0.00 0.00 0.00 39 1012.2
20260902012019 93 0.0 3.0 0.00 0.00 0.00 38 1012.3
20260902011017 93 270 1.0 5.0 0.00 0.00 0.00 39 1012.4
20260902010016 94 270 1.0 5.0 0.00 0.00 0.00 40 1012.5
20260902005016 94 270 2.0 7.0 0.00 0.00 0.00 40 1012.6
20260902004016 94 0.0 1.0 0.00 0.00 0.00 40 1012.6
20260902003016 94 270 1.0 7.0 0.00 0.00 0.00 40 1012.8
20260902002017 94 248 4.0 7.0 0.00 0.00 0.00 40 1012.8
20260902001016 94 225 4.0 6.0 0.00 0.00 0.00 40 1012.8
20260902000018 95 0.0 3.0 0.00 0.00 0.00 39 1013.0
20260901235038 94 270 1.0 4.0 0.00 0.00 0.00 39 1012.9
20260901234037 94 270 5.0 11.0 0.00 0.00 0.00 39 1013.1
20260901233038 95 248 1.0 7.0 0.00 0.00 0.00 40 1013.2
20260901232018 94 0.0 1.0 0.00 0.00 0.00 40 1013.1
20260901231017 94 270 3.0 8.0 0.00 0.00 0.00 40 1013.3
20260901230018 95 338 1.0 5.0 0.00 0.00 0.00 38 1013.5
20260901225016 95 135 1.0 6.0 0.00 0.00 0.00 38 1013.6
20260901224016 95 158 1.0 4.0 0.00 0.00 0.00 38 1013.7
20260901223037 95 135 1.0 4.0 0.00 0.00 0.00 38 1013.9
20260901222036 95 135 1.0 5.0 0.00 0.00 0.00 38 1013.9
20260901221018 95 203 2.0 11.0 0.00 0.00 0.00 38 1013.9
20260901220017 94 0.0 1.0 0.00 0.00 0.00 41 1014.0
20260901215023 94 158 2.0 6.0 0.00 0.00 0.00 41 1014.2
20260901214016 93 293 3.0 5.0 0.00 0.00 0.00 43 1014.4
20260901213017 94 0.0 3.0 0.00 0.00 0.00 41 1014.8
20260901212016 93 135 2.0 6.0 0.00 0.00 0.00 42 1014.8
20260901211036 93 158 2.0 7.0 0.00 0.00 0.00 42 1015.0
20260901210038 92 248 4.0 7.0 0.00 0.00 0.00 43 1015.2
20260901205037 92 338 2.0 5.0 0.00 0.00 0.00 43 1015.3
20260901204018 92 270 1.0 3.0 0.00 0.00 0.00 44 1015.6
20260901203017 94 248 1.0 6.0 0.00 0.00 0.00 42 1015.7
20260901202016 93 0.0 0.0 0.00 0.00 0.00 44 1015.8
20260901201018 91 248 1.0 5.0 0.00 0.00 0.00 45 1015.9